Cloud_Cover
28 47 5 7 28 92 100 100 100 100 100 100 97 6 0 0 12 0 0 0 0 0 2 0 0 0 0 0 0 0 54 37 4 5 5 4 4 4 0 0 0 1 0 0 0
21 5 5 13 39 96 100 100 100 100 100 100 69 16 0 5 0 0 0 0 0 0 0 0 0 0 0 0 0 9 5 3 0 2 0 5 5 2 3 0 7 28 0 0 0
12 5 5 13 30 70 81 86 69 18 100 100 33 17 0 26 0 0 0 0 0 0 0 0 0 0 0 0 0 4 3 1 0 1 0 0 1 5 4 4 4 0 1 4 0
44 27 14 18 21 47 50 36 27 22 99 100 61 10 1 0 0 0 0 0 0 0 0 0 0 0 0 0 0 0 0 0 0 0 0 0 0 0 0 2 0 0 0 4 1
100 83 39 24 18 28 20 14 1 0 3 34 20 7 23 0 0 0 0 0 0 0 0 0 0 0 0 0 0 0 0 0 0 0 0 0 0 0 0 0 0 0 0 5 5
100 100 84 36 17 7 1 0 0 0 0 0 0 8 0 0 0 0 0 0 0 0 0 0 0 0 0 0 0 0 0 0 0 0 0 0 0 0 0 0 0 0 0 2 0
100 100 100 49 24 5 5 0 0 0 0 0 0 1 0 0 0 0 0 0 0 0 0 0 0 0 0 0 0 0 0 0 0 0 0 0 0 0 0 0 0 0 0 0 0
100 100 99 48 24 5 5 0 0 0 0 0 2 0 0 0 0 0 0 0 0 0 0 0 0 0 0 0 0 0 0 1 0 0 0 0 1 0 0 0 0 0 0 0 0
39 50 40 27 22 3 0 0 0 0 0 0 2 0 0 0 0 0 0 0 0 0 0 0 0 0 0 0 0 0 1 0 0 0 0 0 0 0 0 0 0 0 0 0 0
6 5 5 5 5 1 1 10 0 57 19 0 0 0 0 0 0 0 0 0 0 0 0 0 0 0 0 0 2 1 0 0 0 0 0 0 0 0 0 0 0 0 0 0 0
19 5 5 5 5 5 34 0 0 0 0 0 0 0 0 0 0 0 0 0 0 0 0 0 0 0 0 0 0 0 0 0 0 0 0 0 0 0 0 0 0 0 0 0 0
32 48 42 17 5 7 16 0 0 0 2 0 0 0 0 0 0 0 0 0 0 0 0 0 0 0 0 0 0 0 0 0 0 0 0 0 0 0 0 0 0 0 0 0 0
83 34 93 52 35 40 5 5 2 5 2 0 0 0 0 0 0 0 0 0 0 0 0 0 0 0 0 0 0 0 0 0 0 0 0 0 1 0 0 0 0 0 0 0 0
56 8 85 79 23 4 2 5 5 2 0 0 0 0 0 0 0 0 0 0 0 0 0 0 0 0 0 0 0 0 0 0 0 0 16 0 28 3 0 0 0 0 0 0 0
35 6 76 98 73 14 5 5 5 0 0 0 0 0 0 0 0 0 0 0 0 0 0 0 0 0 0 0 0 0 0 0 0 0 0 3 1 98 0 4 4 1 0 0 0
34 84 96 96 94 48 6 3 2 0 1 0 0 0 0 0 0 0 0 0 0 0 0 0 0 0 0 0 0 0 0 0 0 1 8 23 1 6 59 54 6 0 0 0 0
0 14 53 0 1 0 0 0 4 5 5 0 0 0 0 0 0 0 0 0 0 0 0 0 0 0 0 0 0 0 0 1 31 97 100 7 0 0 0 0 0 0 0 0 0
0 39 0 0 0 4 5 4 5 4 5 2 0 0 0 0 0 0 0 0 0 0 0 0 4 0 0 0 0 0 0 0 0 5 4 5 3 27 0 0 0 0 0 0 0
26 5 5 5 5 5 5 5 5 5 5 0 0 0 0 0 0 0 0 0 0 0 0 0 0 0 0 0 0 4 0 1 0 0 1 5 69 18 1 0 0 0 0 1 0
7 8 31 50 34 49 53 10 5 4 0 0 0 0 0 0 0 0 0 0 0 0 0 0 0 0 0 0 0 0 0 0 2 4 2 18 5 52 11 11 2 5 4 0 0
5 10 10 7 5 5 0 0 0 0 0 0 0 0 0 2 0 3 0 0 0 0 0 0 0 0 0 0 0 2 1 3 1 0 0 4 19 9 2 28 9 1 1 0 0
0 0 1 0 0 0 0 0 0 0 0 0 0 0 0 0 0 0 0 0 0 0 0 2 0 0 0 4 0 0 0 0 0 2 5 4 1 22 0 0 0 2 0 0 0
0 0 0 0 0 0 0 0 0 0 0 0 0 0 0 0 0 0 0 0 0 0 0 0 0 0 0 2 16 1 0 0 0 0 0 1 0 78 16 48 45 5 4 3 0
0 0 0 0 0 0 0 0 0 0 0 0 0 0 0 0 0 0 0 0 0 0 0 0 0 0 0 1 20 8 5 2 0 0 2 2 0 5 5 5 1 0 4 3 0
0 0 0 0 0 0 0 0 0 0 0 0 0 0 0 0 0 0 0 0 0 0 0 0 0 0 0 0 0 0 0 0 0 0 0 0 0 0 3 0 0 0 1 3 0
0 0 0 0 0 0 0 0 0 0 0 0 0 0 0 0 0 3 0 0 3 5 0 0 0 0 0 0 0 0 0 0 0 0 0 0 0 5 0 0 2 5 5 4 0
0 0 0 0 0 0 0 0 0 0 0 0 0 0 0 0 0 0 0 0 0 0 4 0 1 4 0 0 0 0 0 0 0 0 0 0 4 7 21 56 5 3 1 2 5